User: anonymous   Login
Location: Unspecified
(0.0000°N, 0.0000°E)
Time: 08:13:49
(UTC+00:00)
Language:

COSMOS 2463 - Orbit

View from above orbital plane
View from above orbital plane
View from above satellite
View from above satellite

Ground track
Ground track

The orbit data is extracted from the following two-line orbital elements,

1 36519U 10017A   18054.64958145 -.00000003 +00000-0 -20014-4 0  9999
2 36519 082.9643 319.4611 0034630 272.0240 087.6954 13.71421528391934
Epoch (UTC): 23 February 2018 15:35:23
Eccentricity: 0.0034630
inclination: 82.9643°
perigee height: 969 km
apogee height: 1020 km
right ascension of ascending node: 319.4611°
argument of perigee: 272.0240°
revolutions per day: 13.71421528
mean anomaly at epoch: 87.6954°
orbit number at epoch: 39193

The dashed part of the orbit path shows where the satellite is in the earth's shadow,  

DLR